[[{"header":{"parameterUnit":"m.s-1","parameterCategory":1,"la1":30.2991,"la2":30.254,"lo1":-89.0895,"lo2":-89.0444,"dy":0.0017,"dx":0.0017,"nx":28,"ny":28,"refTime":"2024-07-17T03:00:00:Z","depth":0,"parameterNumber":2,"parameterNumberName":"U-component_of_WINDS"},"data":[0,0,0,0,0,0,0,0,0,0,0,0,0,0,0,0,0,0,0,0,0,0,0,0,0,0,0,0,0,0,0,0,0,0,0,0,0,0,0,0,0,0,0,0,0,0,0,0,0,0,0,0,0,0,0,0,0,0,3.2277,3.2279,0,3.2426,3.2427,3.2429,3.2414,3.2411,3.2409,3.2407,3.2558,3.2564,3.257,0,0,0,0,0,0,0,0,0,0,0,0,0,3.1978,3.1983,3.2277,3.2279,3.2281,3.2425,3.2427,3.2429,3.2414,3.2411,3.2409,3.2406,3.2556,3.2563,3.2571,0,0,0,0,0,0,0,0,0,0,0,0,0,3.2115,3.1985,3.2277,3.2291,3.2293,3.2425,3.2427,3.243,3.2415,3.2411,3.2408,3.2405,3.2554,3.2563,3.2572,3.2699,0,0,3.26,3.2604,0,0,0,0,0,0,0,0,3.2107,3.2126,3.2287,3.229,3.2293,3.2398,3.2377,3.252,3.2416,3.2369,3.2407,3.2403,3.2507,3.252,3.2556,3.2706,3.2712,3.2601,3.2607,3.2611,3.2613,0,0,0,0,0,0,0,3.2098,3.212,3.2336,3.2289,3.2293,3.2289,3.2304,3.2404,3.2456,3.2372,3.2372,3.239,3.2508,3.2547,3.2559,3.2714,3.2601,3.2609,3.2615,3.2618,3.2973,3.2977,0,0,0,0,0,0,3.2085,3.2112,3.2331,3.234,3.219,3.2297,3.2314,3.2368,3.2455,3.2465,3.2392,3.2388,3.2533,3.2548,3.2564,3.2717,3.261,3.2619,3.2625,3.2969,3.2974,3.2978,0,0,0,0,0,0,3.2079,3.2105,3.2325,3.2226,3.2254,3.2306,3.2366,3.2372,3.2411,3.247,3.2479,3.2422,3.2531,3.2551,3.2665,3.2722,3.2623,3.2632,3.2965,3.2971,3.2976,3.3024,0,0,0,0,0,0,3.207,3.2103,3.2152,3.2227,3.2259,3.2424,3.2369,3.2378,3.2427,3.2423,3.25,3.2509,3.2529,3.2651,3.2674,3.2733,3.2639,3.296,3.2968,3.2974,3.3017,3.303,3.3042,0,0,0,0,0,3.206,3.216,3.2155,3.2181,3.2322,3.2427,3.2445,3.2467,3.2432,3.2481,3.2518,3.2507,3.2712,3.2663,3.2689,3.2751,3.2956,3.2965,3.2974,3.3012,3.3028,3.3041,0,0,0,0,0,0,3.2091,3.217,3.2165,3.2293,3.2353,3.2424,3.2488,3.2483,3.2555,3.2548,3.2571,3.2589,3.2702,3.2738,3.2682,3.2877,3.2829,3.2844,3.2849,3.2865,3.2877,3.2865,3.2647,0,0,0,0,0,3.2113,3.2192,3.2257,3.2363,3.2394,3.2436,3.2482,3.2493,3.2557,3.2582,3.2628,3.269,3.2767,3.2819,3.2894,3.3023,3.3038,3.3078,3.309,3.31,3.3111,3.318,3.3198,3.3007,3.3007,3.3007,0,0,3.2158,3.2211,3.226,3.2371,3.2419,3.2499,3.2457,3.2545,3.2604,3.2595,3.2705,3.2741,3.2811,3.2931,3.2987,3.2965,3.3168,3.3111,3.3118,3.3125,3.319,3.3208,3.3224,3.3013,3.3012,3.3011,0,0,3.2282,3.2331,3.2424,3.2473,3.2546,3.2573,3.2595,3.2667,3.269,3.28,3.2794,3.2865,3.3,3.3049,3.3092,3.3233,3.3224,3.3257,3.332,3.3386,3.3401,3.3414,3.3463,3.348,3.3268,3.3268,3.3268,0,3.233,3.2452,3.2473,3.2561,3.2608,3.2603,3.2697,3.2743,3.2837,3.2869,3.2843,3.3011,3.3058,3.3189,3.3223,3.3258,3.3283,3.3247,3.3397,3.3411,3.3424,3.347,3.3488,3.3272,3.3271,3.3271,3.3271,0,3.2505,3.259,3.2656,3.2746,3.2801,3.2892,3.2925,3.2978,3.2984,3.3013,3.3124,3.318,3.3266,3.3298,3.3305,3.343,3.3413,3.3392,3.3344,3.3445,3.3488,3.3506,3.3277,3.3275,3.3274,3.3273,0,0,3.2654,3.2753,3.2777,3.2816,3.2896,3.2961,3.305,3.3134,3.3178,3.3243,3.3317,3.343,3.341,3.3459,3.3471,3.3529,3.3634,3.3501,3.3503,3.3522,3.3772,3.3787,3.3807,3.3629,3.3633,3.3635,3.3766,0,3.2784,3.2942,3.2963,3.3102,3.3179,3.3175,3.3252,3.3308,3.3338,3.3406,3.3439,3.3517,3.3487,3.3515,3.3573,3.3609,3.3684,3.36,3.3697,3.37,3.3678,3.383,3.3846,3.3966,3.3783,3.3786,3.3788,0,3.2958,3.3026,3.3173,3.324,3.3273,3.3342,3.3419,3.3486,3.3549,3.3566,3.3619,3.3623,3.3714,3.3663,3.3787,3.3729,3.377,3.3793,3.3798,3.3807,3.3749,3.3841,3.4006,3.4023,3.3816,3.3814,3.3812,0,3.3049,3.3178,3.3282,3.3316,3.3398,3.3446,3.3482,3.3541,3.3589,3.3656,3.3687,3.3764,3.3806,3.3865,3.3889,3.385,3.4011,3.3963,3.4026,3.4025,3.4059,3.4057,3.4231,3.4088,3.4088,3.4088,3.4087,0,3.3191,3.3281,3.3323,3.3387,3.3487,3.3509,3.3607,3.3641,3.3694,3.3763,3.3764,3.3829,3.3858,3.3927,3.3947,3.4045,3.4065,3.408,3.4083,3.4079,3.4077,3.4105,3.4096,3.4093,3.4091,3.4091,3.409,0,3.331,3.3342,3.3455,3.3522,3.354,3.3611,3.3667,3.3728,3.3756,3.3844,3.3866,3.391,3.3991,3.4021,3.412,3.4133,3.4246,3.4245,3.4225,3.4226,3.4286,3.428,3.4484,3.4511,3.4352,3.4353,3.4355,0,3.3398,3.3467,3.354,3.3587,3.3624,3.37,3.3748,3.3772,3.3822,3.3898,3.395,3.403,3.4096,3.4226,3.4266,3.4341,3.434,3.4406,3.4351,3.4343,3.4338,3.4333,3.4339,3.4416,3.4417,3.4419,3.442,0,3.3551,3.3563,3.3633,3.3708,3.3766,3.3827,3.3885,3.3923,3.3956,3.4012,3.4095,3.4146,3.4246,3.4325,3.4402,3.4438,3.4434,3.4437,3.4455,3.445,3.4435,3.4442,3.4251,3.4432,3.443,3.443,3.4429,3.4428,3.3656,3.3715,3.3776,3.3853,3.39,3.3954,3.4014,3.4049,3.4119,3.4202,3.4212,3.43,3.4359,3.4462,3.4501,3.4569,3.4551,3.4579,3.4585,3.4591,3.4594,3.4425,3.4584,3.4583,3.4583,3.4583,3.4583,0,3.3807,3.3845,3.3916,3.3997,3.4058,3.4049,3.4113,3.4163,3.4241,3.4297,3.4361,3.4455,3.4531,3.4577,3.4653,3.4699,3.4699,3.4718,3.4714,3.4722,3.4607,3.4583,3.4717,3.4717,3.4717,3.4717,3.4717,3.4717,3.3892,3.3992,3.4011,3.4133,3.4171,3.4257,3.4294,3.4343,3.4388,3.4492,3.4556,3.4585,3.4636,3.4716,3.4785,3.4796,3.4823,3.4844,3.4853,3.4745,3.4731,3.4717,3.4694,3.485,3.485,3.4962,3.4963,3.4964]},{"header":{"parameterUnit":"m.s-1","parameterCategory":1,"la1":30.2991,"la2":30.254,"lo1":-89.0895,"lo2":-89.0444,"dy":0.0017,"dx":0.0017,"nx":28,"ny":28,"refTime":"2024-07-17T03:00:00:Z","depth":0,"parameterNumber":3,"parameterNumberName":"V-component_of_WINDS"},"data":[0,0,0,0,0,0,0,0,0,0,0,0,0,0,0,0,0,0,0,0,0,0,0,0,0,0,0,0,0,0,0,0,0,0,0,0,0,0,0,0,0,0,0,0,0,0,0,0,0,0,0,0,0,0,0,0,0,0,-0.1095,-0.1095,0,-0.1163,-0.1164,-0.1165,-0.1217,-0.1217,-0.1218,-0.1218,-0.1288,-0.1289,-0.1291,0,0,0,0,0,0,0,0,0,0,0,0,0,-0.101,-0.1011,-0.1095,-0.1095,-0.1096,-0.1163,-0.1164,-0.1165,-0.1217,-0.1217,-0.1218,-0.1219,-0.1287,-0.1289,-0.1291,0,0,0,0,0,0,0,0,0,0,0,0,0,-0.1059,-0.1011,-0.1094,-0.113,-0.1134,-0.1163,-0.1164,-0.1165,-0.1217,-0.1217,-0.1218,-0.1219,-0.1287,-0.1289,-0.1291,-0.1289,0,0,-0.1297,-0.1298,0,0,0,0,0,0,0,0,-0.1056,-0.1062,-0.1124,-0.1128,-0.1132,-0.1182,-0.116,-0.1207,-0.1217,-0.1185,-0.1218,-0.1219,-0.1252,-0.1257,-0.1268,-0.1293,-0.1296,-0.1298,-0.1299,-0.13,-0.13,0,0,0,0,0,0,0,-0.1053,-0.106,-0.1122,-0.1125,-0.113,-0.1143,-0.1151,-0.1169,-0.1214,-0.1188,-0.1192,-0.1199,-0.1255,-0.1266,-0.127,-0.1297,-0.1298,-0.1299,-0.1301,-0.1302,-0.1325,-0.1325,0,0,0,0,0,0,-0.1044,-0.1056,-0.112,-0.1124,-0.1095,-0.1144,-0.1153,-0.1165,-0.1214,-0.1222,-0.1199,-0.1202,-0.1262,-0.1268,-0.1273,-0.1275,-0.13,-0.1302,-0.1303,-0.1326,-0.1325,-0.1324,0,0,0,0,0,0,-0.1042,-0.1049,-0.1117,-0.1091,-0.1101,-0.1145,-0.1158,-0.1166,-0.1178,-0.1222,-0.123,-0.1202,-0.1263,-0.127,-0.1285,-0.1279,-0.1303,-0.1305,-0.1327,-0.1326,-0.1325,-0.1279,0,0,0,0,0,0,-0.1039,-0.1048,-0.1047,-0.1091,-0.1102,-0.1127,-0.1158,-0.1167,-0.1182,-0.1186,-0.1227,-0.1235,-0.1264,-0.1282,-0.1288,-0.1282,-0.1306,-0.1327,-0.1326,-0.1325,-0.1282,-0.1277,-0.1273,0,0,0,0,0,-0.1036,-0.1031,-0.1047,-0.1054,-0.1102,-0.1127,-0.1133,-0.1167,-0.1181,-0.1181,-0.121,-0.1234,-0.1279,-0.1283,-0.129,-0.1285,-0.1328,-0.1327,-0.1325,-0.1284,-0.1278,-0.1273,0,0,0,0,0,0,-0.0985,-0.1037,-0.1055,-0.1065,-0.1091,-0.1136,-0.1137,-0.116,-0.1183,-0.1186,-0.1227,-0.1236,-0.1247,-0.1268,-0.1272,-0.1287,-0.1307,-0.1306,-0.1273,-0.1268,-0.1263,-0.1258,-0.1308,0,0,0,0,0,-0.0975,-0.099,-0.1036,-0.1039,-0.1052,-0.1092,-0.1104,-0.1128,-0.1157,-0.1168,-0.1198,-0.1225,-0.1245,-0.1258,-0.1279,-0.1285,-0.1296,-0.1285,-0.1281,-0.1277,-0.1276,-0.1283,-0.1279,-0.132,-0.132,-0.132,0,0,-0.0954,-0.0985,-0.0992,-0.103,-0.1053,-0.1069,-0.1101,-0.1116,-0.1128,-0.117,-0.1187,-0.121,-0.1243,-0.1254,-0.126,-0.1271,-0.1267,-0.1275,-0.1272,-0.1273,-0.1281,-0.1277,-0.1273,-0.1319,-0.1319,-0.1319,0,0,-0.0924,-0.0949,-0.0955,-0.0978,-0.1013,-0.104,-0.1042,-0.1084,-0.1101,-0.1118,-0.1151,-0.1166,-0.12,-0.1223,-0.1239,-0.122,-0.1243,-0.1226,-0.1202,-0.1208,-0.1205,-0.1202,-0.1196,-0.1194,-0.1225,-0.1225,-0.1225,0,-0.0894,-0.0918,-0.0955,-0.0969,-0.0985,-0.1025,-0.1033,-0.1053,-0.1093,-0.1104,-0.1116,-0.1161,-0.1186,-0.1204,-0.1199,-0.1211,-0.1214,-0.1221,-0.1203,-0.12,-0.1198,-0.1193,-0.1191,-0.1222,-0.1223,-0.1223,-0.1223,0,-0.088,-0.0896,-0.0898,-0.0936,-0.0953,-0.0963,-0.1002,-0.1015,-0.1038,-0.1064,-0.1082,-0.1114,-0.1143,-0.1149,-0.1171,-0.117,-0.1176,-0.1195,-0.1215,-0.1191,-0.1187,-0.1185,-0.1219,-0.122,-0.122,-0.1221,0,0,-0.0818,-0.0878,-0.0878,-0.0897,-0.0939,-0.0953,-0.0966,-0.0995,-0.1005,-0.1032,-0.1044,-0.1073,-0.1091,-0.1109,-0.1135,-0.114,-0.1124,-0.1158,-0.116,-0.1151,-0.1127,-0.1112,-0.1109,-0.1141,-0.114,-0.114,-0.1124,0,-0.0795,-0.082,-0.0854,-0.0868,-0.0885,-0.0924,-0.0936,-0.0963,-0.0988,-0.1007,-0.1035,-0.1055,-0.1077,-0.1088,-0.1095,-0.1125,-0.112,-0.1126,-0.1153,-0.1153,-0.1143,-0.1107,-0.1091,-0.1075,-0.1123,-0.1122,-0.1122,0,-0.0771,-0.0796,-0.0811,-0.0855,-0.0863,-0.0872,-0.0903,-0.0919,-0.0952,-0.097,-0.0992,-0.102,-0.1036,-0.1055,-0.1079,-0.1082,-0.1096,-0.1112,-0.1112,-0.1116,-0.1136,-0.111,-0.107,-0.1067,-0.112,-0.112,-0.112,0,-0.0725,-0.0763,-0.0778,-0.0792,-0.0843,-0.0849,-0.087,-0.0904,-0.0919,-0.0946,-0.0957,-0.0985,-0.1,-0.1021,-0.1057,-0.1067,-0.1077,-0.1098,-0.1093,-0.1092,-0.1092,-0.1092,-0.1054,-0.1101,-0.1101,-0.1101,-0.1101,0,-0.0695,-0.0703,-0.0758,-0.0767,-0.0777,-0.0818,-0.0827,-0.0852,-0.0882,-0.0897,-0.0933,-0.0947,-0.0992,-0.1011,-0.1039,-0.1055,-0.1062,-0.1077,-0.1085,-0.1074,-0.1072,-0.1083,-0.1085,-0.11,-0.11,-0.11,-0.11,0,-0.0645,-0.0682,-0.0701,-0.0747,-0.076,-0.0765,-0.0806,-0.0816,-0.0844,-0.0863,-0.087,-0.0914,-0.0938,-0.0976,-0.1011,-0.103,-0.1041,-0.1053,-0.103,-0.1035,-0.1027,-0.1027,-0.0995,-0.0993,-0.104,-0.104,-0.1039,0,-0.0624,-0.0631,-0.0679,-0.0692,-0.0712,-0.0732,-0.0749,-0.0789,-0.0805,-0.0845,-0.0851,-0.0878,-0.0902,-0.094,-0.0975,-0.1003,-0.1016,-0.1003,-0.102,-0.101,-0.1016,-0.1015,-0.1017,-0.0998,-0.0997,-0.0997,-0.0996,0,-0.0582,-0.06,-0.0623,-0.0652,-0.0672,-0.0697,-0.0723,-0.0732,-0.0779,-0.0795,-0.0821,-0.084,-0.0877,-0.0904,-0.0937,-0.0959,-0.0986,-0.0991,-0.0991,-0.098,-0.0967,-0.0975,-0.1019,-0.0991,-0.0992,-0.0992,-0.0992,-0.0993,-0.0546,-0.0555,-0.0591,-0.0615,-0.064,-0.0665,-0.0677,-0.0707,-0.073,-0.0763,-0.0786,-0.0811,-0.0846,-0.0893,-0.0914,-0.0934,-0.0946,-0.0946,-0.0946,-0.0945,-0.0942,-0.0964,-0.0941,-0.0941,-0.0941,-0.0941,-0.0941,0,-0.0507,-0.0532,-0.0554,-0.0591,-0.0611,-0.0635,-0.0666,-0.0681,-0.0702,-0.0733,-0.0756,-0.0786,-0.0813,-0.0852,-0.0882,-0.0891,-0.0904,-0.0897,-0.0897,-0.0902,-0.093,-0.0927,-0.0886,-0.0886,-0.0886,-0.0886,-0.0886,-0.0886,-0.0488,-0.0505,-0.0528,-0.0558,-0.0583,-0.0608,-0.0624,-0.0648,-0.0672,-0.0704,-0.0727,-0.0752,-0.0786,-0.0819,-0.0845,-0.0856,-0.0866,-0.0855,-0.087,-0.0895,-0.09,-0.0904,-0.0902,-0.0857,-0.0857,-0.084,-0.084,-0.084]}]]